19-01-2023, 00:00:01,    253,    0.4,   -1.7,   0.00,   0.00, 1003.7,   91.9, -999.0
19-01-2023, 00:00:11,    253,    0.5,   -1.6,   0.00,   0.00, 1003.7,   92.4, -999.0
19-01-2023, 00:00:21,    253,    0.1,   -1.8,   0.00,   0.00, 1003.6,   92.4, -999.0
19-01-2023, 00:00:31,    258,    1.0,   -1.7,   0.00,   0.00, 1003.8,   93.1, -999.0
19-01-2023, 00:00:41,    256,    0.5,   -1.7,   0.00,   0.00, 1003.7,   93.1, -999.0
19-01-2023, 00:00:51,    250,    0.5,   -1.6,   0.00,   0.00, 1003.7,   93.3, -999.0
19-01-2023, 00:01:01,    250,    0.4,   -1.7,   0.00,   0.00, 1003.7,   93.5, -999.0
19-01-2023, 00:01:11,    284,    0.1,   -1.7,   0.00,   0.00, 1003.6,   93.8, -999.0
19-01-2023, 00:01:21,    283,    0.0,   -1.7,   0.00,   0.00, 1003.6,   93.9, -999.0
19-01-2023, 00:01:31,    283,    0.0,   -1.8,   0.00,   0.00, 1003.6,   94.0, -999.0
19-01-2023, 00:01:41,    275,    0.2,   -1.7,   0.00,   0.00, 1003.7,   94.7, -999.0
19-01-2023, 00:01:51,    264,    0.8,   -1.7,   0.00,   0.00, 1003.8,   95.7, -999.0
19-01-2023, 00:02:01,    248,    0.9,   -1.6,   0.00,   0.00, 1003.7,   96.1, -999.0
19-01-2023, 00:02:11,    248,    0.4,   -1.6,   0.00,   0.00, 1003.7,   96.1, -999.0
19-01-2023, 00:02:21,    247,    0.0,   -1.7,   0.00,   0.00, 1003.6,   96.4, -999.0
19-01-2023, 00:02:30,    247,    0.0,   -1.7,   0.00,   0.00, 1003.6,   98.4, -999.0
19-01-2023, 00:02:41,    247,    0.0,   -1.8,   0.00,   0.00, 1003.6,   98.6, -999.0
19-01-2023, 00:02:51,    247,    0.0,   -1.7,   0.00,   0.00, 1003.6,   98.6, -999.0
19-01-2023, 00:03:01,    247,    0.0,   -1.7,   0.00,   0.00, 1003.6,   98.6, -999.0
19-01-2023, 00:03:10,    248,    0.0,   -1.7,   0.00,   0.00, 1003.6,   98.6, -999.0
19-01-2023, 00:03:21,    266,    0.0,   -1.7,   0.00,   0.00, 1003.6,   98.6, -999.0
19-01-2023, 00:03:31,    255,    0.0,   -1.8,   0.00,   0.00, 1003.6,   98.6, -999.0
19-01-2023, 00:03:40,    238,    0.6,   -1.7,   0.00,   0.00, 1003.8,   99.0, -999.0
19-01-2023, 00:03:50,    245,    1.2,   -1.7,   0.00,   0.00, 1003.8,   98.9, -999.0
19-01-2023, 00:04:01,    249,    0.6,   -1.7,   0.00,   0.00, 1003.8,   99.0, -999.0
19-01-2023, 00:04:11,    248,    0.3,   -1.7,   0.00,   0.00, 1003.7,   98.9, -999.0
19-01-2023, 00:04:20,    248,    0.1,   -1.7,   0.00,   0.00, 1003.7,   98.8, -999.0
19-01-2023, 00:04:30,    248,    0.8,   -1.7,   0.00,   0.00, 1003.8,   99.0, -999.0
19-01-2023, 00:04:41,    250,    0.3,   -1.7,   0.00,   0.00, 1003.8,   99.0, -999.0
19-01-2023, 00:04:50,    234,    0.4,   -1.8,   0.00,   0.00, 1003.7,   98.9, -999.0
19-01-2023, 00:05:00,    234,    0.3,   -1.7,   0.00,   0.00, 1003.7,   98.9, -999.0
19-01-2023, 00:05:11,    234,    0.0,   -1.8,   0.00,   0.00, 1003.6,   98.6, -999.0
19-01-2023, 00:05:21,    234,    0.0,   -1.8,   0.00,   0.00, 1003.6,   98.6, -999.0
19-01-2023, 00:05:30,    234,    0.0,   -1.8,   0.00,   0.00, 1003.6,   98.6, -999.0
19-01-2023, 00:05:40,    234,    0.0,   -1.7,   0.00,   0.00, 1003.6,   98.6, -999.0
19-01-2023, 00:05:51,    234,    0.0,   -1.7,   0.00,   0.00, 1003.6,   98.7, -999.0
19-01-2023, 00:06:00,    235,    0.0,   -1.8,   0.00,   0.00, 1003.6,   98.6, -999.0
19-01-2023, 00:06:10,    237,    0.0,   -1.8,   0.00,   0.00, 1003.7,   98.8, -999.0
19-01-2023, 00:06:20,    237,    0.0,   -1.8,   0.00,   0.00, 1003.6,   98.6, -999.0
19-01-2023, 00:06:30,    237,    0.0,   -1.8,   0.00,   0.00, 1003.6,   98.7, -999.0
19-01-2023, 00:06:40,    237,    0.0,   -1.8,   0.00,   0.00, 1003.6,   98.7, -999.0
19-01-2023, 00:06:50,    237,    0.0,   -1.8,   0.00,   0.00, 1003.6,   98.7, -999.0
19-01-2023, 00:07:00,    239,    0.0,   -1.8,   0.00,   0.00, 1003.7,   98.8, -999.0
19-01-2023, 00:07:10,    239,    0.0,   -1.8,   0.00,   0.00, 1003.7,   98.8, -999.0
19-01-2023, 00:07:20,    239,    0.0,   -1.8,   0.00,   0.00, 1003.6,   98.7, -999.0
19-01-2023, 00:07:30,    239,    0.0,   -1.9,   0.00,   0.00, 1003.6,   98.6, -999.0
19-01-2023, 00:07:40,    239,    0.0,   -1.8,   0.00,   0.00, 1003.6,   98.7, -999.0
19-01-2023, 00:07:50,    239,    0.0,   -1.9,   0.00,   0.00, 1003.6,   98.6, -999.0
19-01-2023, 00:08:00,    251,    0.0,   -1.9,   0.00,   0.00, 1003.6,   98.7, -999.0
19-01-2023, 00:08:10,    251,    0.2,   -1.7,   0.00,   0.00, 1003.8,   99.0, -999.0
19-01-2023, 00:08:20,    252,    0.1,   -1.9,   0.00,   0.00, 1003.6,   98.7, -999.0
19-01-2023, 00:08:30,    252,    0.0,   -1.9,   0.00,   0.00, 1003.6,   98.6, -999.0
19-01-2023, 00:08:40,    252,    0.0,   -1.8,   0.00,   0.00, 1003.6,   98.7, -999.0
19-01-2023, 00:08:50,    252,    0.0,   -1.8,   0.00,   0.00, 1003.6,   98.7, -999.0
19-01-2023, 00:09:00,    252,    0.0,   -1.9,   0.00,   0.00, 1003.6,   98.7, -999.0
19-01-2023, 00:09:10,    252,    0.0,   -1.9,   0.00,   0.00, 1003.6,   98.6, -999.0
19-01-2023, 00:09:20,    252,    0.0,   -1.9,   0.00,   0.00, 1003.6,   98.6, -999.0
19-01-2023, 00:09:30,    252,    0.0,   -1.9,   0.00,   0.00, 1003.6,   98.6, -999.0
19-01-2023, 00:09:40,    252,    0.0,   -1.9,   0.00,   0.00, 1003.6,   98.6, -999.0
19-01-2023, 00:09:50,    252,    0.0,   -1.9,   0.00,   0.00, 1003.6,   98.7, -999.0
19-01-2023, 00:10:00,    252,    0.0,   -1.9,   0.00,   0.00, 1003.7,   98.7, -999.0
19-01-2023, 00:10:10,    253,    0.0,   -1.9,   0.00,   0.00, 1003.6,   98.6, -999.0
19-01-2023, 00:10:20,    252,    0.0,   -1.9,   0.00,   0.00, 1003.7,   98.6, -999.0
19-01-2023, 00:10:30,    253,    0.0,   -1.9,   0.00,   0.00, 1003.7,   98.8, -999.0
19-01-2023, 00:10:40,    257,    0.0,   -1.9,   0.00,   0.00, 1003.7,   98.7, -999.0
19-01-2023, 00:10:50,    257,    0.0,   -1.9,   0.00,   0.00, 1003.6,   98.6, -999.0
19-01-2023, 00:11:00,    256,    0.0,   -1.9,   0.00,   0.00, 1003.6,   98.6, -999.0
19-01-2023, 00:11:10,    256,    0.0,   -2.0,   0.00,   0.00, 1003.6,   98.6, -999.0
19-01-2023, 00:11:20,    257,    0.0,   -1.9,   0.00,   0.00, 1003.6,   98.6, -999.0
19-01-2023, 00:11:30,    258,    0.0,   -1.9,   0.00,   0.00, 1003.7,   98.7, -999.0
19-01-2023, 00:11:40,    264,    0.3,   -1.9,   0.00,   0.00, 1003.8,   98.8, -999.0
19-01-2023, 00:11:50,    254,    0.9,   -1.8,   0.00,   0.00, 1003.9,   99.0, -999.0
19-01-2023, 00:12:00,    237,    1.1,   -1.8,   0.00,   0.00, 1003.9,   99.0, -999.0
19-01-2023, 00:12:10,    237,    0.5,   -1.7,   0.00,   0.00, 1003.8,   98.9, -999.0
19-01-2023, 00:12:20,    254,    1.9,   -1.8,   0.00,   0.00, 1003.8,   99.0, -999.0
19-01-2023, 00:12:30,    252,    2.1,   -1.8,   0.00,   0.00, 1003.8,   99.0, -999.0
19-01-2023, 00:12:40,    250,    1.9,   -1.8,   0.00,   0.00, 1003.8,   99.0, -999.0
19-01-2023, 00:12:49,    267,    0.8,   -1.8,   0.00,   0.00, 1003.9,   99.0, -999.0
19-01-2023, 00:13:00,    288,    1.3,   -1.8,   0.00,   0.00, 1003.9,   99.0, -999.0
19-01-2023, 00:13:10,    281,    0.8,   -1.8,   0.00,   0.00, 1003.8,   99.0, -999.0
19-01-2023, 00:13:19,    280,    0.6,   -1.8,   0.00,   0.00, 1003.9,   99.0, -999.0
19-01-2023, 00:13:30,    282,    0.2,   -1.9,   0.00,   0.00, 1003.8,   98.8, -999.0
19-01-2023, 00:13:40,    281,    0.0,   -1.9,   0.00,   0.00, 1003.8,   98.7, -999.0
19-01-2023, 00:13:50,    280,    0.0,   -1.9,   0.00,   0.00, 1003.8,   98.6, -999.0
19-01-2023, 00:13:59,    280,    0.0,   -1.9,   0.00,   0.00, 1003.7,   98.7, -999.0
19-01-2023, 00:14:10,    281,    0.0,   -1.9,   0.00,   0.00, 1003.7,   98.6, -999.0
19-01-2023, 00:14:20,    280,    0.0,   -1.9,   0.00,   0.00, 1003.7,   98.6, -999.0
19-01-2023, 00:14:29,    280,    0.0,   -1.9,   0.00,   0.00, 1003.7,   98.6, -999.0
19-01-2023, 00:14:39,    280,    0.0,   -2.1,   0.00,   0.00, 1003.7,   98.7, -999.0
19-01-2023, 00:14:50,    280,    0.0,   -1.9,   0.00,   0.00, 1003.7,   98.8, -999.0
19-01-2023, 00:15:00,    278,    0.4,   -1.8,   0.00,   0.00, 1003.8,   98.9, -999.0
19-01-2023, 00:15:09,    277,    0.1,   -1.9,   0.00,   0.00, 1003.8,   98.8, -999.0
19-01-2023, 00:15:19,    277,    0.0,   -1.9,   0.00,   0.00, 1003.8,   98.7, -999.0
19-01-2023, 00:15:30,    242,    0.5,   -1.9,   0.00,   0.00, 1003.8,   98.8, -999.0
19-01-2023, 00:15:39,    241,    0.1,   -1.8,   0.00,   0.00, 1003.8,   98.9, -999.0
19-01-2023, 00:15:49,    243,    0.0,   -1.8,   0.00,   0.00, 1003.8,   98.8, -999.0
19-01-2023, 00:15:59,    275,    0.1,   -1.8,   0.00,   0.00, 1003.8,   98.8, -999.0
19-01-2023, 00:16:10,    268,    0.0,   -1.9,   0.00,   0.00, 1003.7,   98.7, -999.0
19-01-2023, 00:16:19,    267,    0.0,   -1.9,   0.00,   0.00, 1003.7,   98.7, -999.0
19-01-2023, 00:16:29,    268,    0.0,   -1.9,   0.00,   0.00, 1003.8,   98.6, -999.0
19-01-2023, 00:16:39,    268,    0.0,   -1.8,   0.00,   0.00, 1003.7,   98.6, -999.0
19-01-2023, 00:16:49,    267,    0.0,   -1.8,   0.00,   0.00, 1003.7,   98.6, -999.0
19-01-2023, 00:16:59,    267,    0.0,   -1.9,   0.00,   0.00, 1003.8,   98.7, -999.0
19-01-2023, 00:17:09,    248,    0.0,   -1.8,   0.00,   0.00, 1003.8,   98.7, -999.0
19-01-2023, 00:17:19,    248,    0.0,   -1.8,   0.00,   0.00, 1003.8,   98.8, -999.0
19-01-2023, 00:17:29,    252,    0.0,   -1.8,   0.00,   0.00, 1003.8,   98.7, -999.0
19-01-2023, 00:17:39,    252,    0.0,   -1.9,   0.00,   0.00, 1003.8,   98.7, -999.0
19-01-2023, 00:17:49,    253,    0.0,   -1.8,   0.00,   0.00, 1003.8,   98.6, -999.0
19-01-2023, 00:17:59,    252,    0.0,   -1.9,   0.00,   0.00, 1003.8,   98.6, -999.0
19-01-2023, 00:18:09,    252,    0.0,   -1.9,   0.00,   0.00, 1003.8,   98.6, -999.0
19-01-2023, 00:18:19,    255,    0.0,   -1.9,   0.00,   0.00, 1003.8,   98.7, -999.0
19-01-2023, 00:18:29,    255,    0.0,   -1.8,   0.00,   0.00, 1003.8,   98.7, -999.0
19-01-2023, 00:18:39,    255,    0.0,   -2.0,   0.00,   0.00, 1003.8,   98.6, -999.0
19-01-2023, 00:18:49,    255,    0.0,   -1.9,   0.00,   0.00, 1003.8,   98.6, -999.0
19-01-2023, 00:18:59,    246,    0.1,   -1.9,   0.00,   0.00, 1003.8,   98.7, -999.0
19-01-2023, 00:19:09,    245,    0.2,   -1.7,   0.00,   0.00, 1003.9,   98.9, -999.0
19-01-2023, 00:19:19,    246,    0.0,   -1.9,   0.00,   0.00, 1003.8,   98.6, -999.0
19-01-2023, 00:19:29,    245,    0.0,   -1.9,   0.00,   0.00, 1003.8,   98.6, -999.0
19-01-2023, 00:19:39,    245,    0.0,   -1.8,   0.00,   0.00, 1003.8,   98.7, -999.0
19-01-2023, 00:19:49,    245,    0.0,   -1.9,   0.00,   0.00, 1003.8,   98.6, -999.0
19-01-2023, 00:19:59,    245,    0.0,   -1.9,   0.00,   0.00, 1003.8,   98.7, -999.0
19-01-2023, 00:20:09,    245,    0.0,   -1.9,   0.00,   0.00, 1003.8,   98.6, -999.0
19-01-2023, 00:20:19,    245,    0.0,   -1.9,   0.00,   0.00, 1003.8,   98.6, -999.0
19-01-2023, 00:20:29,    245,    0.0,   -1.9,   0.00,   0.00, 1003.8,   98.6, -999.0
19-01-2023, 00:20:39,    245,    0.0,   -2.0,   0.00,   0.00, 1003.8,   98.7, -999.0
19-01-2023, 00:20:50,    245,    0.0,   -1.9,   0.00,   0.00, 1003.7,   98.6, -999.0
19-01-2023, 00:20:59,    245,    0.0,   -1.9,   0.00,   0.00, 1003.8,   98.6, -999.0
19-01-2023, 00:21:09,    246,    0.0,   -1.9,   0.00,   0.00, 1003.8,   98.7, -999.0
19-01-2023, 00:21:19,    246,    0.0,   -2.0,   0.00,   0.00, 1003.8,   98.6, -999.0
19-01-2023, 00:21:29,    246,    0.0,   -1.9,   0.00,   0.00, 1003.8,   98.7, -999.0
19-01-2023, 00:21:39,    246,    0.0,   -1.9,   0.00,   0.00, 1003.8,   98.7, -999.0
19-01-2023, 00:21:49,    246,    0.0,   -2.0,   0.00,   0.00, 1003.8,   98.6, -999.0
19-01-2023, 00:21:59,    231,    0.2,   -1.9,   0.00,   0.00, 1003.8,   98.8, -999.0
19-01-2023, 00:22:09,    230,    0.0,   -1.8,   0.00,   0.00, 1003.8,   98.7, -999.0
19-01-2023, 00:22:19,    230,    0.0,   -1.9,   0.00,   0.00, 1003.8,   98.5, -999.0
19-01-2023, 00:22:29,    231,    0.0,   -1.9,   0.00,   0.00, 1003.8,   98.7, -999.0
19-01-2023, 00:22:39,    257,    0.0,   -1.9,   0.00,   0.00, 1003.8,   98.7, -999.0
19-01-2023, 00:22:49,    257,    0.0,   -1.9,   0.00,   0.00, 1003.8,   98.8, -999.0
19-01-2023, 00:22:59,    257,    0.0,   -1.9,   0.00,   0.00, 1003.8,   98.6, -999.0
19-01-2023, 00:23:09,    257,    0.0,   -1.9,   0.00,   0.00, 1003.8,   98.7, -999.0
19-01-2023, 00:23:19,    257,    0.0,   -1.9,   0.00,   0.00, 1003.8,   98.6, -999.0
19-01-2023, 00:23:29,    240,    0.0,   -1.9,   0.00,   0.00, 1003.8,   98.8, -999.0
19-01-2023, 00:23:38,    247,    0.8,   -1.8,   0.00,   0.00, 1003.9,   98.9, -999.0
19-01-2023, 00:23:49,    255,    0.6,   -1.9,   0.00,   0.00, 1003.9,   99.0, -999.0
19-01-2023, 00:23:59,    255,    0.3,   -1.9,   0.00,   0.00, 1003.9,   99.0, -999.0
19-01-2023, 00:24:08,    252,    0.6,   -1.8,   0.00,   0.00, 1003.8,   98.9, -999.0
19-01-2023, 00:24:18,    249,    2.0,   -1.9,   0.00,   0.00, 1003.9,   99.0, -999.0
19-01-2023, 00:24:29,    250,    1.9,   -1.8,   0.00,   0.00, 1003.9,   99.0, -999.0
19-01-2023, 00:24:39,    251,    0.6,   -1.8,   0.00,   0.00, 1003.9,   99.0, -999.0
19-01-2023, 00:24:48,    274,    0.9,   -1.8,   0.00,   0.00, 1003.9,   99.0, -999.0
19-01-2023, 00:24:58,    268,    0.0,   -1.9,   0.00,   0.00, 1003.8,   98.7, -999.0
19-01-2023, 00:25:09,    267,    0.1,   -1.9,   0.00,   0.00, 1003.8,   98.7, -999.0
19-01-2023, 00:25:18,    267,    0.0,   -2.0,   0.00,   0.00, 1003.7,   98.6, -999.0
19-01-2023, 00:25:28,    268,    0.0,   -2.0,   0.00,   0.00, 1003.7,   98.7, -999.0
19-01-2023, 00:25:39,    267,    0.0,   -2.0,   0.00,   0.00, 1003.7,   98.6, -999.0
19-01-2023, 00:25:49,    268,    0.0,   -2.0,   0.00,   0.00, 1003.7,   98.6, -999.0
19-01-2023, 00:25:58,    267,    0.0,   -2.0,   0.00,   0.00, 1003.7,   98.7, -999.0
19-01-2023, 00:26:08,    267,    0.0,   -2.0,   0.00,   0.00, 1003.7,   98.6, -999.0
19-01-2023, 00:26:19,    263,    0.2,   -1.9,   0.00,   0.00, 1003.8,   98.8, -999.0
19-01-2023, 00:26:28,    262,    0.5,   -1.8,   0.00,   0.00, 1003.8,   99.0, -999.0
19-01-2023, 00:26:38,    261,    0.0,   -1.9,   0.00,   0.00, 1003.7,   98.7, -999.0
19-01-2023, 00:26:48,    260,    0.2,   -1.9,   0.00,   0.00, 1003.8,   98.9, -999.0
19-01-2023, 00:26:59,    260,    0.5,   -1.9,   0.00,   0.00, 1003.8,   99.0, -999.0
19-01-2023, 00:27:08,    260,    0.0,   -1.8,   0.00,   0.00, 1003.7,   98.7, -999.0
19-01-2023, 00:27:18,    260,    0.0,   -2.0,   0.00,   0.00, 1003.7,   98.7, -999.0
19-01-2023, 00:27:28,    260,    0.0,   -2.0,   0.00,   0.00, 1003.7,   98.6, -999.0
19-01-2023, 00:27:38,    249,    0.0,   -2.0,   0.00,   0.00, 1003.7,   98.7, -999.0
19-01-2023, 00:27:48,    249,    0.1,   -1.9,   0.00,   0.00, 1003.8,   98.8, -999.0
19-01-2023, 00:27:58,    251,    0.5,   -1.9,   0.00,   0.00, 1003.9,   99.0, -999.0
19-01-2023, 00:28:08,    248,    0.3,   -1.9,   0.00,   0.00, 1003.8,   98.9, -999.0
19-01-2023, 00:28:18,    248,    0.2,   -2.0,   0.00,   0.00, 1003.8,   98.9, -999.0
19-01-2023, 00:28:28,    247,    0.0,   -2.1,   0.00,   0.00, 1003.7,   98.7, -999.0
19-01-2023, 00:28:38,    248,    0.0,   -2.0,   0.00,   0.00, 1003.7,   98.6, -999.0
19-01-2023, 00:28:48,    259,    0.2,   -2.0,   0.00,   0.00, 1003.8,   98.9, -999.0
19-01-2023, 00:28:58,    258,    0.0,   -2.0,   0.00,   0.00, 1003.7,   98.7, -999.0
19-01-2023, 00:29:08,    258,    0.0,   -2.0,   0.00,   0.00, 1003.7,   98.6, -999.0
19-01-2023, 00:29:18,    257,    0.0,   -2.1,   0.00,   0.00, 1003.8,   98.7, -999.0
19-01-2023, 00:29:28,    257,    0.0,   -2.0,   0.00,   0.00, 1003.7,   98.6, -999.0
19-01-2023, 00:29:38,    259,    0.2,   -2.0,   0.00,   0.00, 1003.8,   98.7, -999.0
19-01-2023, 00:29:48,    256,    0.7,   -1.9,   0.00,   0.00, 1003.8,   99.0, -999.0
19-01-2023, 00:29:58,    256,    0.3,   -1.9,   0.00,   0.00, 1003.8,   98.9, -999.0
19-01-2023, 00:30:08,    267,    0.3,   -1.9,   0.00,   0.00, 1003.8,   98.9, -999.0
19-01-2023, 00:30:18,    267,    0.0,   -1.9,   0.00,   0.00, 1003.7,   98.7, -999.0
19-01-2023, 00:30:28,    266,    0.0,   -2.0,   0.00,   0.00, 1003.7,   98.7, -999.0
19-01-2023, 00:30:38,    266,    0.3,   -2.0,   0.00,   0.00, 1003.7,   98.8, -999.0
19-01-2023, 00:30:48,    254,    0.5,   -1.9,   0.00,   0.00, 1003.8,   98.9, -999.0
19-01-2023, 00:30:58,    254,    0.0,   -1.9,   0.00,   0.00, 1003.7,   98.8, -999.0
19-01-2023, 00:31:08,    254,    0.0,   -2.0,   0.00,   0.00, 1003.7,   98.6, -999.0
19-01-2023, 00:31:18,    254,    0.0,   -2.0,   0.00,   0.00, 1003.7,   98.6, -999.0
19-01-2023, 00:31:28,    254,    0.0,   -2.0,   0.00,   0.00, 1003.7,   98.6, -999.0
19-01-2023, 00:31:38,    255,    0.0,   -2.0,   0.00,   0.00, 1003.7,   98.6, -999.0
19-01-2023, 00:31:48,    249,    0.3,   -1.9,   0.00,   0.00, 1003.8,   99.0, -999.0
19-01-2023, 00:31:58,    249,    0.2,   -2.0,   0.00,   0.00, 1003.7,   87.2, -999.0
19-01-2023, 00:32:08,    250,    1.6,   -1.9,   0.00,   0.00, 1003.8,    0.2, -999.0
19-01-2023, 00:32:18,    253,    0.9,   -1.9,   0.00,   0.00, 1003.8,    0.1, -999.0
19-01-2023, 00:32:28,    253,    0.3,   -1.9,   0.00,   0.00, 1003.7,    0.2, -999.0
19-01-2023, 00:32:38,    253,    0.0,   -2.0,   0.00,   0.00, 1003.6,   49.0, -999.0
19-01-2023, 00:32:48,    253,    0.0,   -2.1,   0.00,   0.00, 1003.6,   98.6, -999.0
19-01-2023, 00:32:58,    251,    0.0,   -2.1,   0.00,   0.00, 1003.7,   98.7, -999.0
19-01-2023, 00:33:08,    251,    0.0,   -2.0,   0.00,   0.00, 1003.7,   62.1, -999.0
19-01-2023, 00:33:17,    250,    0.4,   -2.0,   0.00,   0.00, 1003.7,    0.1, -999.0
19-01-2023, 00:33:28,    266,    1.0,   -2.0,   0.00,   0.00, 1003.8,    0.3, -999.0
19-01-2023, 00:33:38,    266,    0.3,   -1.9,   0.00,   0.00, 1003.8,    0.1, -999.0
19-01-2023, 00:33:48,    262,    0.1,   -2.0,   0.00,   0.00, 1003.7,    0.0, -999.0
19-01-2023, 00:33:57,    205,    0.0,   -1.9,   0.00,   0.00, 1003.7,    0.1, -999.0
19-01-2023, 00:34:08,    234,    0.1,   -1.9,   0.00,   0.00, 1003.7,    0.1, -999.0
19-01-2023, 00:34:18,    253,    1.3,   -1.9,   0.00,   0.00, 1003.8,    0.1, -999.0
19-01-2023, 00:34:27,    253,    0.3,   -2.0,   0.00,   0.00, 1003.8,    0.3, -999.0
19-01-2023, 00:34:38,    250,    0.3,   -2.0,   0.00,   0.00, 1003.8,    0.2, -999.0
19-01-2023, 00:34:48,    250,    0.1,   -2.0,   0.00,   0.00, 1003.7,    0.1, -999.0
19-01-2023, 00:34:58,    250,    0.2,   -1.9,   0.00,   0.00, 1003.7,    0.1, -999.0
19-01-2023, 00:35:07,    251,    0.4,   -2.0,   0.00,   0.00, 1003.7,    0.2, -999.0
19-01-2023, 00:35:18,    253,    0.0,   -2.1,   0.00,   0.00, 1003.6,    0.2, -999.0
19-01-2023, 00:35:28,    256,    0.2,   -2.1,   0.00,   0.00, 1003.7,    0.1, -999.0
19-01-2023, 00:35:37,    256,    0.1,   -2.0,   0.00,   0.00, 1003.7,    0.2, -999.0
19-01-2023, 00:35:47,    256,    0.0,   -2.1,   0.00,   0.00, 1003.7,    0.1, -999.0
19-01-2023, 00:35:58,    255,    0.0,   -2.1,   0.00,   0.00, 1003.6,    0.2, -999.0
19-01-2023, 00:36:07,    255,    0.3,   -2.1,   0.00,   0.00, 1003.7,    0.2, -999.0
19-01-2023, 00:36:17,    249,    1.3,   -2.1,   0.00,   0.00, 1003.8,    0.1, -999.0
19-01-2023, 00:36:27,    250,    1.4,   -2.1,   0.00,   0.00, 1003.8,    0.1, -999.0
19-01-2023, 00:36:38,    249,    0.1,   -2.1,   0.00,   0.00, 1003.7,    0.1, -999.0
19-01-2023, 00:36:47,    250,    0.0,   -2.2,   0.00,   0.00, 1003.6,    0.1, -999.0
19-01-2023, 00:36:57,    250,    0.0,   -2.2,   0.00,   0.00, 1003.6,    0.1, -999.0
19-01-2023, 00:37:07,    250,    0.2,   -2.1,   0.00,   0.00, 1003.7,    0.2, -999.0
19-01-2023, 00:37:17,    251,    0.0,   -2.1,   0.00,   0.00, 1003.6,    0.0, -999.0
19-01-2023, 00:37:27,    251,    0.0,   -2.2,   0.00,   0.00, 1003.7,    0.1, -999.0
19-01-2023, 00:37:37,    250,    0.0,   -2.2,   0.00,   0.00, 1003.7,    0.3, -999.0
19-01-2023, 00:37:47,    250,    0.1,   -2.2,   0.00,   0.00, 1003.7,    0.2, -999.0
19-01-2023, 00:37:57,    250,    0.0,   -2.2,   0.00,   0.00, 1003.6,    0.0, -999.0
19-01-2023, 00:38:07,    250,    0.0,   -2.1,   0.00,   0.00, 1003.6,    0.1, -999.0
19-01-2023, 00:38:17,    250,    0.1,   -2.1,   0.00,   0.00, 1003.7,    0.1, -999.0
19-01-2023, 00:38:27,    251,    0.0,   -2.2,   0.00,   0.00, 1003.6,    0.1, -999.0
19-01-2023, 00:38:37,    253,    0.0,   -2.2,   0.00,   0.00, 1003.7,    0.1, -999.0
19-01-2023, 00:38:47,    253,    0.0,   -2.2,   0.00,   0.00, 1003.7,    0.2, -999.0
19-01-2023, 00:38:57,    260,    0.0,   -2.2,   0.00,   0.00, 1003.7,    0.0, -999.0
19-01-2023, 00:39:07,    260,    0.0,   -2.2,   0.00,   0.00, 1003.7,    0.0, -999.0
19-01-2023, 00:39:17,    260,    0.0,   -2.2,   0.00,   0.00, 1003.7,    0.1, -999.0
19-01-2023, 00:39:27,    260,    0.0,   -2.3,   0.00,   0.00, 1003.7,    0.2, -999.0
19-01-2023, 00:39:37,    260,    0.0,   -2.2,   0.00,   0.00, 1003.7,    0.1, -999.0
19-01-2023, 00:39:47,    260,    0.0,   -2.2,   0.00,   0.00, 1003.7,    0.1, -999.0
19-01-2023, 00:39:57,    260,    0.0,   -2.2,   0.00,   0.00, 1003.7,    0.2, -999.0
19-01-2023, 00:40:07,    260,    0.0,   -2.2,   0.00,   0.00, 1003.7,    0.1, -999.0
19-01-2023, 00:40:17,    260,    0.0,   -2.2,   0.00,   0.00, 1003.7,    0.0, -999.0
19-01-2023, 00:40:27,    260,    0.0,   -2.2,   0.00,   0.00, 1003.7,    0.1, -999.0
19-01-2023, 00:40:37,    260,    0.0,   -2.2,   0.00,   0.00, 1003.7,    0.0, -999.0
19-01-2023, 00:40:47,    260,    0.0,   -2.2,   0.00,   0.00, 1003.7,    0.4, -999.0
19-01-2023, 00:40:57,    260,    0.0,   -2.2,   0.00,   0.00, 1003.7,    0.1, -999.0
19-01-2023, 00:41:07,    251,    0.1,   -2.2,   0.00,   0.00, 1003.7,    0.0, -999.0
19-01-2023, 00:41:17,    251,    0.4,   -2.1,   0.00,   0.00, 1003.8,    0.3, -999.0
19-01-2023, 00:41:27,    250,    1.0,   -2.1,   0.00,   0.00, 1003.8,    0.1, -999.0
19-01-2023, 00:41:37,    257,    0.2,   -2.1,   0.00,   0.00, 1003.8,    0.2, -999.0
19-01-2023, 00:41:47,    255,    0.0,   -2.2,   0.00,   0.00, 1003.7,    0.1, -999.0
19-01-2023, 00:41:57,    259,    0.0,   -2.2,   0.00,   0.00, 1003.7,    0.0, -999.0
19-01-2023, 00:42:07,    271,    0.0,   -2.3,   0.00,   0.00, 1003.8,    0.1, -999.0
19-01-2023, 00:42:17,    270,    0.1,   -2.2,   0.00,   0.00, 1003.8,    0.1, -999.0
19-01-2023, 00:42:27,    286,    0.4,   -2.1,   0.00,   0.00, 1003.9,    0.1, -999.0
19-01-2023, 00:42:37,    251,    0.9,   -2.2,   0.00,   0.00, 1003.9,    0.1, -999.0
19-01-2023, 00:42:47,    270,    1.1,   -2.2,   0.00,   0.00, 1003.8,    0.1, -999.0
19-01-2023, 00:42:57,    267,    0.7,   -2.2,   0.00,   0.00, 1003.8,    0.1, -999.0
19-01-2023, 00:43:07,    268,    0.1,   -2.2,   0.00,   0.00, 1003.7,    0.1, -999.0
19-01-2023, 00:43:17,    264,    0.2,   -2.2,   0.00,   0.00, 1003.8,    0.2, -999.0
19-01-2023, 00:43:27,    256,    0.2,   -2.1,   0.00,   0.00, 1003.7,    0.1, -999.0
19-01-2023, 00:43:36,    254,    0.2,   -2.1,   0.00,   0.00, 1003.8,    0.2, -999.0
19-01-2023, 00:43:47,    255,    0.0,   -2.1,   0.00,   0.00, 1003.7,    0.1, -999.0
19-01-2023, 00:43:57,    256,    0.0,   -2.2,   0.00,   0.00, 1003.7,    0.0, -999.0
19-01-2023, 00:44:07,    255,    0.0,   -2.1,   0.00,   0.00, 1003.8,    0.3, -999.0
19-01-2023, 00:44:17,    255,    0.0,   -2.1,   0.00,   0.00, 1003.7,    0.2, -999.0
19-01-2023, 00:44:27,    259,    0.0,   -2.1,   0.00,   0.00, 1003.7,    0.1, -999.0
19-01-2023, 00:44:37,    259,    0.0,   -2.1,   0.00,   0.00, 1003.7,    0.1, -999.0
19-01-2023, 00:44:46,    259,    0.0,   -2.1,   0.00,   0.00, 1003.7,    0.0, -999.0
19-01-2023, 00:44:57,    259,    0.0,   -2.2,   0.00,   0.00, 1003.7,    0.1, -999.0
19-01-2023, 00:45:07,    270,    0.5,   -2.2,   0.00,   0.00, 1003.7,    0.2, -999.0
19-01-2023, 00:45:16,    273,    1.3,   -2.1,   0.00,   0.00, 1003.8,    0.1, -999.0
19-01-2023, 00:45:26,    273,    0.1,   -2.2,   0.00,   0.00, 1003.7,    0.1, -999.0
19-01-2023, 00:45:37,    272,    0.0,   -2.2,   0.00,   0.00, 1003.7,    0.1, -999.0
19-01-2023, 00:45:47,    273,    0.1,   -2.2,   0.00,   0.00, 1003.7,    0.1, -999.0
19-01-2023, 00:45:56,    273,    0.0,   -2.1,   0.00,   0.00, 1003.7,    0.1, -999.0
19-01-2023, 00:46:06,    272,    0.0,   -2.2,   0.00,   0.00, 1003.7,    0.1, -999.0
19-01-2023, 00:46:17,    272,    0.0,   -2.2,   0.00,   0.00, 1003.7,    0.1, -999.0
19-01-2023, 00:46:26,    272,    0.0,   -2.2,   0.00,   0.00, 1003.6,    0.2, -999.0
19-01-2023, 00:46:36,    272,    0.0,   -2.2,   0.00,   0.00, 1003.6,    0.1, -999.0
19-01-2023, 00:46:46,    268,    0.2,   -2.2,   0.00,   0.00, 1003.7,    0.1, -999.0